Погода в Боре

Сербия     44°04′26″N   22°05′56″E
темп.,
°C
ветер,
м/с
пор.,
м/с
влажн.,
%
обл.,
%
осадки,
мм/ч
давл.,
гПа
погр.,
м
22 апреля, чт
чт2223:00+6з22791 0.0 102021
02:00+6з22800 0.0 102017
05:00+5з22815 0.0 102014
08:00+11ююз226329 0.0 1020223
11:00+15ю3447100 0.0 10191386
14:00+16ююз4540100 0.0 10181736
17:00+15ююз454599 0.0 10171325
20:00+9зсз2264100 0.0 101817
23 апреля, пт
пт2323:00+9з2267100 0.0 101939
02:00+8з2274100 0.0 101947
05:00+8з2488100 0.1 1019112
08:00+9зсз3582100 0.2 1021581
11:00+12зсз46504 0.0 10221144
14:00+13зсз68430 0.0 10221541
17:00+12сз57463 0.0 10221438
20:00+7з226741 0.0 102437
24 апреля, сб
сб2423:00+5з2276100 0.0 102528
02:00+4з227956 0.0 102427
05:00+3з227822 0.0 102437
08:00+8зсз265298 0.0 1024769
11:00+12с343943 0.0 10231538
14:00+14ссв3339100 0.0 10211873
17:00+14в224570 0.0 10191424
20:00+7с227532 0.0 102120
25 апреля, вс
вс2523:00+6сз22743 0.0 102221
02:00+5сз22763 0.0 102116
05:00+5сз21782 0.0 102112
08:00+9вюв116335 0.0 1021324
11:00+13юв325433 0.0 10201340
14:00+15юв335185 0.0 10181536
17:00+15юв015295 0.0 10171159
20:00+8сз33680 0.0 101933
26 апреля, пн
пн2623:00+6зсз22720 0.0 102123
02:00+6зсз22730 0.0 102016
05:00+5зсз22771 0.0 102013
08:00+11ю01604 0.0 1019277
11:00+15ююв3249100 0.0 10181311
14:00+17юв3345100 0.0 10151516
17:00+16юв2453100 0.0 1013805
20:00+11с1170100 0.0 101413